| time (UTC) | temp F | wind direction | speed MPH | gust MPH | rain 1hr in | rain 24hr in | rain mn in | humidity % | barometer mb |
| 20260905204552 | 51 | 236 | 0.0 | 4.0 | 0.00 | 0.07 | 0.00 | 87 | 1018.8 |
| 20260905204045 | 51 | 269 | 1.0 | 4.0 | 0.00 | 0.07 | 0.00 | 87 | 1018.7 |
| 20260905203549 | 51 | 250 | 0.0 | 4.0 | 0.00 | 0.07 | 0.00 | 87 | 1018.7 |
| 20260905203102 | 51 | 249 | 1.0 | 8.0 | 0.00 | 0.07 | 0.00 | 87 | 1018.8 |
| 20260905202543 | 51 | 253 | 2.0 | 8.0 | 0.00 | 0.07 | 0.00 | 86 | 1018.7 |
| 20260905202047 | 50 | 257 | 2.0 | 7.0 | 0.00 | 0.07 | 0.00 | 86 | 1018.5 |
| 20260905201046 | 51 | 229 | 0.0 | 5.0 | 0.00 | 0.07 | 0.00 | 86 | 1018.4 |
| 20260905200547 | 51 | 248 | 2.0 | 5.0 | 0.00 | 0.07 | 0.00 | 86 | 1018.3 |
| 20260905200048 | 51 | 269 | 0.0 | 2.0 | 0.00 | 0.07 | 0.00 | 86 | 1018.3 |
| 20260905195546 | 51 | 274 | 1.0 | 7.0 | 0.00 | 0.10 | 0.00 | 86 | 1018.2 |
| 20260905195045 | 51 | 254 | 3.0 | 8.0 | 0.00 | 0.10 | 0.00 | 86 | 1018.2 |
| 20260905194544 | 51 | 266 | 2.0 | 8.0 | 0.00 | 0.10 | 0.00 | 86 | 1018.1 |
| 20260905194043 | 51 | 250 | 1.0 | 5.0 | 0.00 | 0.10 | 0.00 | 86 | 1018.0 |
| 20260905193543 | 51 | 287 | 1.0 | 7.0 | 0.00 | 0.10 | 0.00 | 86 | 1018.1 |
| 20260905193042 | 51 | 263 | 1.0 | 7.0 | 0.00 | 0.10 | 0.00 | 85 | 1018.1 |
| 20260905192542 | 51 | 254 | 2.0 | 5.0 | 0.00 | 0.10 | 0.00 | 85 | 1018.1 |
| 20260905192042 | 51 | 245 | 1.0 | 5.0 | 0.00 | 0.10 | 0.00 | 86 | 1018.0 |
| 20260905191033 | 51 | 265 | 2.0 | 7.0 | 0.00 | 0.10 | 0.00 | 86 | 1017.9 |
| 20260905190533 | 51 | 271 | 1.0 | 8.0 | 0.00 | 0.10 | 0.00 | 86 | 1017.8 |
| 20260905190033 | 51 | 261 | 1.0 | 5.0 | 0.00 | 0.13 | 0.00 | 86 | 1017.8 |
| 20260905185531 | 51 | 242 | 1.0 | 5.0 | 0.00 | 0.13 | 0.00 | 86 | 1017.8 |
| 20260905185031 | 51 | 245 | 0.0 | 3.0 | 0.00 | 0.13 | 0.00 | 86 | 1017.7 |
| 20260905184530 | 51 | 217 | 0.0 | 8.0 | 0.00 | 0.13 | 0.00 | 86 | 1017.6 |
| 20260905184028 | 51 | 261 | 1.0 | 9.0 | 0.00 | 0.13 | 0.00 | 86 | 1017.4 |
| 20260905183528 | 51 | 296 | 2.0 | 10.0 | 0.00 | 0.13 | 0.00 | 86 | 1017.4 |
| 20260905183027 | 51 | 296 | 1.0 | 8.0 | 0.00 | 0.13 | 0.00 | 86 | 1017.3 |
| 20260905182526 | 51 | 304 | 2.0 | 7.0 | 0.00 | 0.13 | 0.00 | 86 | 1017.2 |
| 20260905182026 | 51 | 264 | 3.0 | 7.0 | 0.00 | 0.13 | 0.00 | 86 | 1017.2 |
| 20260905181025 | 51 | 263 | 0.0 | 8.0 | 0.00 | 0.13 | 0.00 | 86 | 1016.9 |
| 20260905180525 | 51 | 264 | 2.0 | 8.0 | 0.00 | 0.13 | 0.00 | 86 | 1016.8 |
| 20260905180023 | 51 | 275 | 3.0 | 8.0 | 0.00 | 0.18 | 0.00 | 86 | 1016.7 |
| 20260905175524 | 51 | 257 | 2.0 | 10.0 | 0.00 | 0.18 | 0.00 | 86 | 1016.6 |
| 20260905175022 | 51 | 257 | 3.0 | 10.0 | 0.00 | 0.18 | 0.00 | 86 | 1016.6 |
| 20260905174523 | 52 | 262 | 3.0 | 12.0 | 0.00 | 0.18 | 0.00 | 86 | 1016.4 |
| 20260905174020 | 52 | 291 | 5.0 | 12.0 | 0.00 | 0.18 | 0.00 | 86 | 1016.3 |
| 20260905173520 | 52 | 267 | 3.0 | 10.0 | 0.00 | 0.18 | 0.00 | 86 | 1016.3 |
| 20260905173020 | 52 | 294 | 3.0 | 9.0 | 0.00 | 0.18 | 0.00 | 86 | 1016.3 |
| 20260905172519 | 52 | 267 | 3.0 | 9.0 | 0.00 | 0.18 | 0.00 | 86 | 1016.3 |
| 20260905172018 | 52 | 285 | 4.0 | 10.0 | 0.00 | 0.18 | 0.00 | 86 | 1016.2 |
| 20260905171018 | 52 | 276 | 4.0 | 10.0 | 0.00 | 0.18 | 0.00 | 86 | 1016.3 |
| 20260905170517 | 52 | 292 | 3.0 | 8.0 | 0.00 | 0.18 | 0.00 | 86 | 1016.2 |
| 20260905170022 | 52 | 239 | 2.0 | 8.0 | 0.00 | 0.20 | 0.00 | 86 | 1016.1 |
| 20260905165520 | 52 | 267 | 3.0 | 8.0 | 0.00 | 0.20 | 0.00 | 86 | 1015.9 |
| 20260905165020 | 52 | 279 | 2.0 | 8.0 | 0.00 | 0.20 | 0.00 | 86 | 1015.8 |
| 20260905164516 | 52 | 250 | 3.0 | 11.0 | 0.00 | 0.20 | 0.00 | 86 | 1015.8 |
| 20260905164015 | 52 | 228 | 3.0 | 11.0 | 0.00 | 0.20 | 0.00 | 86 | 1015.7 |
| 20260905163518 | 52 | 244 | 3.0 | 9.0 | 0.00 | 0.20 | 0.00 | 86 | 1015.7 |
| 20260905163015 | 52 | 310 | 1.0 | 10.0 | 0.00 | 0.20 | 0.00 | 86 | 1015.7 |
| 20260905162512 | 52 | 258 | 3.0 | 10.0 | 0.00 | 0.20 | 0.00 | 87 | 1015.6 |
| 20260905162013 | 52 | 245 | 3.0 | 8.0 | 0.00 | 0.20 | 0.00 | 87 | 1015.5 |
| 20260905161010 | 52 | 269 | 3.0 | 10.0 | 0.00 | 0.20 | 0.00 | 88 | 1015.5 |
| 20260905160510 | 52 | 242 | 5.0 | 10.0 | 0.00 | 0.20 | 0.00 | 88 | 1015.4 |
| 20260905160009 | 52 | 272 | 4.0 | 10.0 | 0.00 | 0.23 | 0.00 | 88 | 1015.3 |
| 20260905155512 | 52 | 268 | 2.0 | 10.0 | 0.00 | 0.23 | 0.00 | 88 | 1015.2 |
| 20260905155007 | 52 | 238 | 3.0 | 11.0 | 0.00 | 0.23 | 0.00 | 88 | 1015.2 |
| 20260905154506 | 52 | 273 | 3.0 | 13.0 | 0.00 | 0.23 | 0.00 | 88 | 1015.0 |
| 20260905154007 | 52 | 228 | 5.0 | 13.0 | 0.00 | 0.23 | 0.00 | 88 | 1014.8 |
| 20260905153505 | 52 | 259 | 6.0 | 13.0 | 0.00 | 0.23 | 0.00 | 88 | 1014.8 |
| 20260905153003 | 52 | 266 | 6.0 | 13.0 | 0.00 | 0.23 | 0.00 | 88 | 1014.7 |
| 20260905152502 | 52 | 280 | 3.0 | 8.0 | 0.00 | 0.23 | 0.00 | 88 | 1014.7 |
| 20260905152101 | 52 | 194 | 3.0 | 10.0 | 0.00 | 0.23 | 0.00 | 88 | 1014.6 |
| 20260905151702 | 52 | 281 | 1.0 | 9.0 | 0.00 | 0.23 | 0.00 | 88 | 1014.4 |
| 20260905151005 | 52 | 255 | 2.0 | 9.0 | 0.00 | 0.23 | 0.00 | 87 | 1014.3 |
| 20260905150501 | 52 | 253 | 3.0 | 8.0 | 0.00 | 0.23 | 0.00 | 87 | 1014.3 |
| 20260905150107 | 52 | 257 | 2.0 | 8.0 | 0.00 | 0.23 | 0.00 | 87 | 1014.1 |
| 20260905145604 | 52 | 246 | 2.0 | 10.0 | 0.00 | 0.24 | 0.00 | 87 | 1014.2 |
| 20260905145058 | 52 | 269 | 4.0 | 8.0 | 0.00 | 0.24 | 0.00 | 87 | 1013.9 |
| 20260905144557 | 52 | 244 | 4.0 | 8.0 | 0.00 | 0.24 | 0.00 | 87 | 1013.8 |
| 20260905144058 | 52 | 249 | 3.0 | 13.0 | 0.00 | 0.24 | 0.00 | 86 | 1013.7 |
| 20260905143554 | 52 | 265 | 2.0 | 13.0 | 0.00 | 0.24 | 0.00 | 86 | 1013.6 |
| 20260905143103 | 52 | 275 | 3.0 | 11.0 | 0.00 | 0.24 | 0.00 | 86 | 1013.6 |
| 20260905142554 | 52 | 247 | 2.0 | 8.0 | 0.00 | 0.24 | 0.00 | 86 | 1013.4 |
| 20260905142052 | 52 | 226 | 2.0 | 10.0 | 0.00 | 0.24 | 0.00 | 86 | 1013.4 |
| 20260905141653 | 53 | 259 | 3.0 | 8.0 | 0.00 | 0.24 | 0.00 | 86 | 1013.4 |
| 20260905141051 | 53 | 268 | 3.0 | 10.0 | 0.00 | 0.24 | 0.00 | 86 | 1013.4 |
| 20260905140551 | 53 | 275 | 3.0 | 10.0 | 0.00 | 0.24 | 0.00 | 86 | 1013.3 |
| 20260905140050 | 53 | 264 | 1.0 | 10.0 | 0.00 | 0.24 | 0.00 | 85 | 1013.2 |
| 20260905135549 | 53 | 238 | 3.0 | 9.0 | 0.00 | 0.25 | 0.24 | 85 | 1013.1 |
| 20260905135048 | 53 | 263 | 5.0 | 10.0 | 0.00 | 0.25 | 0.24 | 85 | 1013.0 |
| 20260905134547 | 53 | 296 | 5.0 | 10.0 | 0.00 | 0.25 | 0.24 | 85 | 1012.8 |
| 20260905134046 | 53 | 268 | 2.0 | 10.0 | 0.00 | 0.25 | 0.24 | 85 | 1012.7 |
| 20260905133547 | 52 | 311 | 4.0 | 10.0 | 0.00 | 0.25 | 0.24 | 85 | 1012.6 |
| 20260905133045 | 52 | 276 | 2.0 | 8.0 | 0.00 | 0.25 | 0.24 | 85 | 1012.4 |
| 20260905132544 | 52 | 246 | 2.0 | 9.0 | 0.00 | 0.25 | 0.24 | 85 | 1012.3 |
| 20260905132044 | 52 | 209 | 1.0 | 9.0 | 0.00 | 0.25 | 0.24 | 85 | 1012.2 |
| 20260905131645 | 52 | 182 | 2.0 | 7.0 | 0.00 | 0.25 | 0.24 | 85 | 1012.1 |
| 20260905131040 | 52 | 288 | 2.0 | 7.0 | 0.00 | 0.25 | 0.24 | 85 | 1012.0 |
| 20260905130544 | 52 | 271 | 0.0 | 10.0 | 0.00 | 0.25 | 0.24 | 85 | 1012.0 |
| 20260905130040 | 52 | 263 | 3.0 | 10.0 | 0.00 | 0.25 | 0.24 | 85 | 1012.0 |
| 20260905125538 | 52 | 298 | 1.0 | 9.0 | 0.00 | 0.25 | 0.24 | 85 | 1011.8 |
| 20260905125038 | 52 | 301 | 2.0 | 9.0 | 0.00 | 0.25 | 0.24 | 84 | 1011.8 |
| 20260905124537 | 52 | 275 | 2.0 | 11.0 | 0.00 | 0.25 | 0.24 | 84 | 1011.7 |
| 20260905124037 | 52 | 273 | 5.0 | 11.0 | 0.00 | 0.25 | 0.24 | 83 | 1011.6 |
| 20260905123536 | 53 | 275 | 3.0 | 11.0 | 0.00 | 0.25 | 0.24 | 83 | 1011.4 |
| 20260905123039 | 53 | 273 | 3.0 | 11.0 | 0.00 | 0.25 | 0.24 | 82 | 1011.3 |
| 20260905122534 | 53 | 290 | 3.0 | 11.0 | 0.00 | 0.25 | 0.24 | 81 | 1011.4 |
| 20260905122035 | 53 | 233 | 2.0 | 11.0 | 0.00 | 0.25 | 0.24 | 81 | 1011.3 |
| 20260905121632 | 53 | 267 | 3.0 | 11.0 | 0.00 | 0.25 | 0.24 | 79 | 1011.1 |
| 20260905121035 | 53 | 314 | 5.0 | 11.0 | 0.00 | 0.25 | 0.24 | 79 | 1011.1 |
| 20260905120535 | 53 | 282 | 6.0 | 11.0 | 0.00 | 0.25 | 0.24 | 78 | 1011.0 |
| 20260905120039 | 53 | 325 | 3.0 | 12.0 | 0.00 | 0.26 | 0.24 | 77 | 1010.8 |
| 20260905115533 | 53 | 302 | 4.0 | 12.0 | 0.00 | 0.26 | 0.24 | 76 | 1010.7 |
| 20260905115033 | 53 | 323 | 4.0 | 13.0 | 0.00 | 0.26 | 0.24 | 76 | 1010.6 |
| 20260905114532 | 53 | 263 | 5.0 | 17.0 | 0.00 | 0.26 | 0.24 | 76 | 1010.5 |
| 20260905114031 | 53 | 251 | 8.0 | 17.0 | 0.00 | 0.26 | 0.24 | 76 | 1010.5 |
| 20260905113530 | 53 | 293 | 6.0 | 13.0 | 0.00 | 0.26 | 0.24 | 76 | 1010.3 |
| 20260905113029 | 53 | 253 | 6.0 | 14.0 | 0.00 | 0.26 | 0.24 | 75 | 1010.2 |
| 20260905112529 | 53 | 288 | 4.0 | 15.0 | 0.00 | 0.26 | 0.24 | 75 | 1010.2 |
| 20260905112035 | 53 | 299 | 6.0 | 15.0 | 0.00 | 0.26 | 0.24 | 75 | 1010.1 |
| 20260905111631 | 53 | 288 | 4.0 | 14.0 | 0.00 | 0.26 | 0.24 | 74 | 1010.0 |
| 20260905111032 | 53 | 250 | 5.0 | 14.0 | 0.00 | 0.26 | 0.24 | 74 | 1009.9 |
| 20260905110529 | 54 | 254 | 7.0 | 13.0 | 0.00 | 0.26 | 0.24 | 74 | 1010.0 |
| 20260905110030 | 54 | 268 | 6.0 | 13.0 | 0.00 | 0.26 | 0.24 | 74 | 1009.9 |
| 20260905105530 | 54 | 266 | 6.0 | 13.0 | 0.00 | 0.26 | 0.24 | 73 | 1009.9 |
| 20260905105029 | 54 | 290 | 7.0 | 14.0 | 0.00 | 0.26 | 0.24 | 73 | 1009.6 |
| 20260905104528 | 54 | 303 | 9.0 | 14.0 | 0.00 | 0.26 | 0.24 | 73 | 1009.6 |
| 20260905104030 | 54 | 305 | 6.0 | 12.0 | 0.00 | 0.26 | 0.24 | 73 | 1009.4 |
| 20260905103531 | 54 | 328 | 4.0 | 11.0 | 0.00 | 0.26 | 0.24 | 72 | 1009.2 |
| 20260905103028 | 54 | 263 | 6.0 | 15.0 | 0.00 | 0.26 | 0.24 | 72 | 1009.1 |
| 20260905102527 | 54 | 286 | 6.0 | 15.0 | 0.00 | 0.26 | 0.24 | 73 | 1009.1 |
| 20260905102028 | 54 | 284 | 6.0 | 17.0 | 0.00 | 0.26 | 0.24 | 72 | 1008.9 |
| 20260905101628 | 54 | 270 | 5.0 | 16.0 | 0.00 | 0.26 | 0.24 | 73 | 1008.8 |
| 20260905101023 | 54 | 258 | 5.0 | 16.0 | 0.00 | 0.26 | 0.24 | 73 | 1008.7 |
| 20260905100523 | 54 | 250 | 6.0 | 13.0 | 0.00 | 0.26 | 0.24 | 72 | 1008.7 |
| 20260905100024 | 54 | 266 | 6.0 | 13.0 | 0.00 | 0.26 | 0.24 | 72 | 1008.6 |
| 20260905095524 | 54 | 265 | 4.0 | 16.0 | 0.00 | 0.26 | 0.24 | 72 | 1008.4 |
| 20260905095024 | 54 | 264 | 9.0 | 18.0 | 0.00 | 0.26 | 0.24 | 72 | 1008.1 |
| 20260905094540 | 54 | 271 | 8.0 | 21.0 | 0.00 | 0.26 | 0.24 | 72 | 1007.9 |
| 20260905094021 | 54 | 287 | 9.0 | 21.0 | 0.00 | 0.26 | 0.24 | 72 | 1007.9 |
| 20260905093520 | 54 | 299 | 6.0 | 16.0 | 0.00 | 0.26 | 0.24 | 72 | 1007.8 |
| 20260905093020 | 54 | 309 | 6.0 | 13.0 | 0.00 | 0.26 | 0.24 | 71 | 1007.7 |
| 20260905092519 | 54 | 284 | 8.0 | 13.0 | 0.00 | 0.26 | 0.24 | 71 | 1007.6 |
| 20260905092023 | 54 | 298 | 4.0 | 17.0 | 0.00 | 0.26 | 0.24 | 71 | 1007.5 |
| 20260905091619 | 54 | 302 | 7.0 | 15.0 | 0.00 | 0.26 | 0.24 | 70 | 1007.4 |
| 20260905091021 | 54 | 302 | 7.0 | 15.0 | 0.00 | 0.26 | 0.24 | 70 | 1007.3 |
| 20260905090520 | 54 | 283 | 8.0 | 15.0 | 0.00 | 0.26 | 0.24 | 70 | 1007.3 |
| 20260905090019 | 54 | 249 | 5.0 | 11.0 | 0.00 | 0.26 | 0.24 | 70 | 1007.3 |
| 20260905085518 | 54 | 270 | 3.0 | 10.0 | 0.00 | 0.26 | 0.24 | 70 | 1007.2 |
| 20260905085018 | 55 | 298 | 3.0 | 15.0 | 0.00 | 0.26 | 0.24 | 70 | 1007.0 |
| 20260905084518 | 55 | 275 | 3.0 | 15.0 | 0.00 | 0.26 | 0.24 | 70 | 1006.8 |
| 20260905084016 | 55 | 288 | 5.0 | 16.0 | 0.00 | 0.26 | 0.24 | 69 | 1006.6 |
| 20260905083516 | 55 | 310 | 6.0 | 16.0 | 0.00 | 0.26 | 0.24 | 69 | 1006.6 |
| 20260905083018 | 55 | 333 | 3.0 | 14.0 | 0.00 | 0.26 | 0.24 | 69 | 1006.3 |
| 20260905082516 | 55 | 273 | 4.0 | 15.0 | 0.00 | 0.26 | 0.24 | 69 | 1006.2 |
| 20260905082016 | 56 | 311 | 6.0 | 17.0 | 0.00 | 0.26 | 0.24 | 68 | 1006.0 |
| 20260905081616 | 56 | 296 | 10.0 | 22.0 | 0.00 | 0.26 | 0.24 | 68 | 1006.0 |
| 20260905081026 | 56 | 266 | 11.0 | 22.0 | 0.00 | 0.26 | 0.24 | 68 | 1006.1 |
| 20260905080527 | 56 | 288 | 9.0 | 17.0 | 0.00 | 0.26 | 0.24 | 68 | 1006.0 |
| 20260905080025 | 56 | 296 | 3.0 | 18.0 | 0.00 | 0.26 | 0.24 | 68 | 1005.9 |
| 20260905075524 | 56 | 300 | 9.0 | 18.0 | 0.00 | 0.26 | 0.24 | 68 | 1005.8 |
| 20260905075028 | 55 | 269 | 10.0 | 20.0 | 0.00 | 0.26 | 0.24 | 69 | 1005.6 |
| 20260905074523 | 55 | 298 | 5.0 | 13.0 | 0.00 | 0.26 | 0.24 | 71 | 1005.6 |
| 20260905074023 | 55 | 268 | 1.0 | 5.0 | 0.00 | 0.26 | 0.24 | 71 | 1005.5 |
| 20260905073522 | 55 | 257 | 0.0 | 7.0 | 0.00 | 0.26 | 0.24 | 70 | 1005.4 |
| 20260905073022 | 55 | 257 | 2.0 | 11.0 | 0.00 | 0.26 | 0.24 | 70 | 1005.3 |
| 20260905072527 | 55 | 281 | 5.0 | 11.0 | 0.00 | 0.26 | 0.24 | 70 | 1005.4 |
| 20260905072022 | 56 | 302 | 6.0 | 11.0 | 0.00 | 0.26 | 0.24 | 69 | 1005.4 |
| 20260905071622 | 57 | 278 | 3.0 | 15.0 | 0.01 | 0.26 | 0.24 | 66 | 1005.4 |
| 20260905071018 | 57 | 231 | 5.0 | 15.0 | 0.01 | 0.26 | 0.24 | 65 | 1005.4 |
| 20260905070517 | 58 | 279 | 7.0 | 21.0 | 0.01 | 0.26 | 0.24 | 63 | 1005.4 |
| 20260905070017 | 58 | 253 | 9.0 | 21.0 | 0.01 | 0.26 | 0.24 | 62 | 1005.4 |
| 20260905065517 | 59 | 296 | 11.0 | 20.0 | 0.01 | 0.26 | 0.24 | 63 | 1005.1 |
| 20260905065017 | 59 | 243 | 11.0 | 23.0 | 0.01 | 0.26 | 0.24 | 62 | 1005.0 |
| 20260905064517 | 60 | 257 | 12.0 | 23.0 | 0.01 | 0.26 | 0.24 | 61 | 1004.7 |
| 20260905064017 | 60 | 302 | 10.0 | 20.0 | 0.02 | 0.26 | 0.24 | 61 | 1004.6 |
| 20260905063516 | 61 | 327 | 12.0 | 22.0 | 0.02 | 0.26 | 0.24 | 61 | 1004.4 |
| 20260905063017 | 61 | 258 | 8.0 | 27.0 | 0.02 | 0.26 | 0.24 | 63 | 1004.4 |
| 20260905062516 | 61 | 275 | 10.0 | 27.0 | 0.03 | 0.26 | 0.24 | 64 | 1004.2 |
| 20260905062016 | 60 | 324 | 7.0 | 23.0 | 0.03 | 0.26 | 0.24 | 66 | 1004.2 |
| 20260905061617 | 59 | 355 | 11.0 | 21.0 | 0.02 | 0.25 | 0.24 | 68 | 1004.0 |
| 20260905061020 | 59 | 259 | 9.0 | 21.0 | 0.02 | 0.25 | 0.24 | 69 | 1004.1 |
| 20260905060519 | 59 | 319 | 9.0 | 15.0 | 0.02 | 0.25 | 0.24 | 71 | 1003.8 |
| 20260905060032 | 58 | 290 | 7.0 | 13.0 | 0.02 | 0.25 | 0.24 | 73 | 1003.6 |
| 20260905055519 | 58 | 273 | 8.0 | 14.0 | 0.02 | 0.25 | 0.24 | 73 | 1003.6 |
| 20260905055019 | 58 | 278 | 6.0 | 15.0 | 0.02 | 0.25 | 0.24 | 74 | 1003.7 |
| 20260905054523 | 59 | 290 | 8.0 | 19.0 | 0.02 | 0.25 | 0.24 | 72 | 1003.7 |
| 20260905054019 | 59 | 290 | 9.0 | 21.0 | 0.02 | 0.25 | 0.24 | 69 | 1004.0 |
| 20260905053522 | 60 | 276 | 13.0 | 21.0 | 0.02 | 0.24 | 0.23 | 64 | 1004.0 |
| 20260905053019 | 62 | 315 | 13.0 | 26.0 | 0.01 | 0.24 | 0.22 | 62 | 1003.9 |
| 20260905052519 | 63 | 295 | 11.0 | 26.0 | 0.00 | 0.23 | 0.21 | 56 | 1003.8 |
| 20260905052019 | 64 | 302 | 9.0 | 18.0 | 0.00 | 0.23 | 0.21 | 56 | 1003.7 |
| 20260905051618 | 64 | 273 | 8.0 | 23.0 | 0.00 | 0.23 | 0.21 | 56 | 1003.7 |
| 20260905051011 | 64 | 242 | 10.0 | 23.0 | 0.00 | 0.23 | 0.21 | 56 | 1003.7 |
| 20260905050511 | 63 | 300 | 10.0 | 19.0 | 0.00 | 0.23 | 0.21 | 57 | 1003.6 |
| 20260905050011 | 63 | 264 | 10.0 | 20.0 | 0.00 | 0.23 | 0.21 | 58 | 1003.5 |
| 20260905045511 | 63 | 296 | 11.0 | 22.0 | 0.00 | 0.23 | 0.21 | 57 | 1003.7 |
| 20260905045011 | 64 | 302 | 11.0 | 22.0 | 0.00 | 0.23 | 0.21 | 54 | 1003.7 |
| 20260905044511 | 65 | 292 | 10.0 | 21.0 | 0.00 | 0.23 | 0.21 | 52 | 1003.3 |
| 20260905044010 | 65 | 5 | 12.0 | 21.0 | 0.00 | 0.23 | 0.21 | 50 | 1003.2 |
| 20260905043513 | 66 | 272 | 11.0 | 21.0 | 0.00 | 0.23 | 0.21 | 48 | 1002.9 |
| 20260905043014 | 66 | 288 | 8.0 | 19.0 | 0.00 | 0.23 | 0.21 | 47 | 1003.0 |
| 20260905042510 | 67 | 255 | 9.0 | 19.0 | 0.00 | 0.23 | 0.21 | 45 | 1002.9 |
| 20260905042010 | 67 | 298 | 11.0 | 19.0 | 0.00 | 0.23 | 0.21 | 45 | 1003.0 |
| 20260905041611 | 67 | 270 | 8.0 | 18.0 | 0.00 | 0.23 | 0.21 | 47 | 1003.0 |
| 20260905041009 | 67 | 265 | 8.0 | 18.0 | 0.00 | 0.23 | 0.21 | 47 | 1003.0 |
| 20260905040508 | 67 | 278 | 10.0 | 16.0 | 0.00 | 0.23 | 0.21 | 48 | 1002.7 |
| 20260905040008 | 66 | 278 | 6.0 | 20.0 | 0.00 | 0.23 | 0.21 | 49 | 1003.0 |
| 20260905035506 | 66 | 343 | 9.0 | 20.0 | 0.00 | 0.23 | 0.21 | 49 | 1003.1 |
| 20260905035005 | 66 | 269 | 8.0 | 22.0 | 0.00 | 0.23 | 0.21 | 49 | 1003.2 |
| 20260905034506 | 66 | 271 | 8.0 | 19.0 | 0.00 | 0.23 | 0.21 | 48 | 1003.1 |
| 20260905034005 | 65 | 309 | 9.0 | 19.0 | 0.00 | 0.23 | 0.21 | 49 | 1003.1 |
| 20260905033504 | 65 | 248 | 9.0 | 25.0 | 0.00 | 0.23 | 0.21 | 50 | 1003.2 |
| 20260905033005 | 65 | 300 | 12.0 | 25.0 | 0.00 | 0.23 | 0.21 | 48 | 1003.3 |
| 20260905032505 | 65 | 302 | 10.0 | 19.0 | 0.00 | 0.23 | 0.21 | 52 | 1003.4 |
| 20260905032003 | 65 | 250 | 6.0 | 19.0 | 0.00 | 0.23 | 0.21 | 54 | 1003.3 |
| 20260905031616 | 65 | 311 | 10.0 | 24.0 | 0.00 | 0.23 | 0.21 | 53 | 1003.4 |
| 20260905031011 | 65 | 269 | 10.0 | 24.0 | 0.00 | 0.23 | 0.21 | 52 | 1003.4 |
| 20260905030508 | 65 | 288 | 11.0 | 24.0 | 0.00 | 0.23 | 0.21 | 52 | 1003.3 |
| 20260905030009 | 65 | 282 | 10.0 | 26.0 | 0.00 | 0.23 | 0.21 | 53 | 1003.4 |
| 20260905025508 | 65 | 295 | 11.0 | 26.0 | 0.00 | 0.23 | 0.21 | 54 | 1003.5 |
| 20260905025008 | 64 | 285 | 9.0 | 19.0 | 0.00 | 0.23 | 0.21 | 60 | 1003.5 |
| 20260905024508 | 64 | 327 | 7.0 | 20.0 | 0.00 | 0.23 | 0.21 | 62 | 1003.5 |
| 20260905024007 | 63 | 265 | 11.0 | 20.0 | 0.00 | 0.23 | 0.21 | 63 | 1003.4 |
| 20260905023507 | 62 | 261 | 6.0 | 16.0 | 0.00 | 0.23 | 0.21 | 66 | 1003.5 |
| 20260905023016 | 62 | 259 | 6.0 | 14.0 | 0.00 | 0.23 | 0.21 | 68 | 1003.5 |
| 20260905022506 | 62 | 307 | 5.0 | 16.0 | 0.00 | 0.23 | 0.21 | 69 | 1003.5 |
| 20260905022006 | 61 | 329 | 8.0 | 15.0 | 0.00 | 0.23 | 0.21 | 70 | 1003.4 |
| 20260905021615 | 61 | 256 | 7.0 | 15.0 | 0.00 | 0.23 | 0.21 | 70 | 1003.6 |
| 20260905021006 | 62 | 296 | 6.0 | 15.0 | 0.00 | 0.23 | 0.21 | 69 | 1003.7 |
| 20260905020507 | 63 | 257 | 7.0 | 15.0 | 0.00 | 0.23 | 0.21 | 67 | 1003.8 |
| 20260905020007 | 64 | 244 | 7.0 | 17.0 | 0.00 | 0.23 | 0.21 | 63 | 1003.8 |
| 20260905015506 | 65 | 272 | 9.0 | 17.0 | 0.00 | 0.23 | 0.21 | 58 | 1003.7 |
| 20260905015006 | 66 | 285 | 10.0 | 20.0 | 0.00 | 0.23 | 0.21 | 55 | 1003.8 |
| 20260905014506 | 65 | 272 | 9.0 | 24.0 | 0.00 | 0.23 | 0.21 | 55 | 1003.7 |
| 20260905014002 | 65 | 288 | 13.0 | 25.0 | 0.00 | 0.23 | 0.21 | 55 | 1003.6 |
| 20260905013502 | 65 | 265 | 13.0 | 28.0 | 0.01 | 0.23 | 0.21 | 55 | 1003.4 |
| 20260905013120 | 65 | 340 | 15.0 | 28.0 | 0.01 | 0.23 | 0.21 | 55 | 1003.6 |
| 20260905012559 | 64 | 329 | 12.0 | 22.0 | 0.01 | 0.23 | 0.21 | 57 | 1003.4 |
| 20260905012058 | 64 | 298 | 11.0 | 25.0 | 0.01 | 0.23 | 0.21 | 57 | 1003.5 |
| 20260905011607 | 64 | 288 | 12.0 | 24.0 | 0.01 | 0.23 | 0.21 | 59 | 1003.6 |
| 20260905011058 | 64 | 281 | 12.0 | 24.0 | 0.01 | 0.23 | 0.21 | 59 | 1003.6 |
| 20260905010558 | 64 | 295 | 12.0 | 26.0 | 0.01 | 0.23 | 0.21 | 59 | 1003.6 |
| 20260905010100 | 64 | 321 | 11.0 | 25.0 | 0.01 | 0.23 | 0.21 | 61 | 1003.7 |
| 20260905005555 | 63 | 304 | 11.0 | 25.0 | 0.01 | 0.23 | 0.21 | 61 | 1003.5 |
| 20260905005055 | 63 | 321 | 11.0 | 24.0 | 0.01 | 0.23 | 0.21 | 62 | 1003.5 |
| 20260905004555 | 63 | 255 | 12.0 | 24.0 | 0.01 | 0.23 | 0.21 | 63 | 1003.6 |
| 20260905004052 | 63 | 334 | 12.0 | 34.0 | 0.01 | 0.23 | 0.21 | 63 | 1003.4 |
| 20260905003551 | 62 | 296 | 13.0 | 34.0 | 0.01 | 0.23 | 0.21 | 63 | 1003.4 |
| 20260905003050 | 62 | 279 | 9.0 | 19.0 | 0.00 | 0.22 | 0.20 | 64 | 1003.6 |
| 20260905002548 | 62 | 281 | 9.0 | 25.0 | 0.00 | 0.22 | 0.20 | 65 | 1003.6 |
| 20260905002047 | 61 | 267 | 11.0 | 25.0 | 0.00 | 0.22 | 0.20 | 65 | 1003.8 |
| 20260905001549 | 61 | 303 | 10.0 | 23.0 | 0.00 | 0.22 | 0.20 | 66 | 1004.0 |
| 20260905001041 | 61 | 263 | 10.0 | 23.0 | 0.00 | 0.22 | 0.20 | 66 | 1004.0 |
| 20260905000539 | 61 | 266 | 12.0 | 26.0 | 0.00 | 0.22 | 0.20 | 67 | 1004.0 |
| 20260905000039 | 61 | 279 | 13.0 | 26.0 | 0.00 | 0.22 | 0.20 | 68 | 1003.9 |
| 20260904235538 | 61 | 319 | 9.0 | 23.0 | 0.00 | 0.22 | 0.20 | 68 | 1003.9 |
| 20260904235037 | 62 | 288 | 13.0 | 24.0 | 0.00 | 0.22 | 0.20 | 69 | 1003.9 |
| 20260904234540 | 61 | 286 | 12.0 | 24.0 | 0.00 | 0.22 | 0.20 | 69 | 1003.7 |
| 20260904234035 | 61 | 275 | 9.0 | 28.0 | 0.00 | 0.22 | 0.20 | 69 | 1003.6 |
| 20260904233536 | 61 | 341 | 12.0 | 26.0 | 0.00 | 0.22 | 0.20 | 71 | 1003.7 |
| 20260904233032 | 61 | 301 | 10.0 | 23.0 | 0.00 | 0.22 | 0.20 | 73 | 1003.7 |
| 20260904232531 | 61 | 351 | 6.0 | 16.0 | 0.00 | 0.22 | 0.20 | 75 | 1003.7 |
| 20260904232030 | 60 | 355 | 9.0 | 16.0 | 0.00 | 0.22 | 0.20 | 76 | 1003.8 |
| 20260904231529 | 60 | 321 | 10.0 | 19.0 | 0.00 | 0.22 | 0.20 | 78 | 1003.9 |
| 20260904231029 | 60 | 313 | 11.0 | 19.0 | 0.00 | 0.22 | 0.20 | 78 | 1003.9 |
| 20260904230530 | 60 | 319 | 6.0 | 15.0 | 0.00 | 0.22 | 0.20 | 79 | 1003.8 |
| 20260904230042 | 59 | 336 | 7.0 | 17.0 | 0.00 | 0.22 | 0.20 | 79 | 1003.9 |
| 20260904225528 | 59 | 315 | 6.0 | 16.0 | 0.00 | 0.22 | 0.20 | 80 | 1003.8 |
| 20260904225026 | 59 | 294 | 8.0 | 17.0 | 0.00 | 0.22 | 0.20 | 81 | 1003.9 |
| 20260904224525 | 59 | 294 | 9.0 | 17.0 | 0.00 | 0.22 | 0.20 | 81 | 1003.8 |
| 20260904224025 | 59 | 344 | 7.0 | 18.0 | 0.00 | 0.22 | 0.20 | 82 | 1004.0 |
| 20260904223524 | 58 | 300 | 5.0 | 16.0 | 0.00 | 0.22 | 0.20 | 82 | 1003.9 |
| 20260904223023 | 58 | 281 | 7.0 | 20.0 | 0.00 | 0.22 | 0.20 | 82 | 1003.9 |
| 20260904222526 | 58 | 329 | 7.0 | 18.0 | 0.00 | 0.22 | 0.20 | 83 | 1003.7 |
| 20260904222022 | 58 | 223 | 8.0 | 18.0 | 0.00 | 0.22 | 0.20 | 83 | 1003.6 |
| 20260904221522 | 57 | 346 | 10.0 | 16.0 | 0.00 | 0.22 | 0.20 | 84 | 1003.6 |
| 20260904221030 | 57 | 325 | 9.0 | 16.0 | 0.00 | 0.22 | 0.20 | 85 | 1003.6 |
| 20260904220529 | 57 | 336 | 7.0 | 15.0 | 0.00 | 0.22 | 0.20 | 85 | 1003.6 |
| 20260904220034 | 57 | 347 | 8.0 | 15.0 | 0.00 | 0.22 | 0.20 | 86 | 1003.6 |
| 20260904215528 | 57 | 355 | 4.0 | 18.0 | 0.00 | 0.22 | 0.20 | 86 | 1003.6 |
| 20260904215031 | 57 | 336 | 8.0 | 18.0 | 0.00 | 0.22 | 0.20 | 87 | 1003.9 |
| 20260904214527 | 56 | 5 | 7.0 | 15.0 | 0.00 | 0.22 | 0.20 | 88 | 1004.1 |
| 20260904214026 | 56 | 360 | 5.0 | 14.0 | 0.00 | 0.22 | 0.20 | 88 | 1004.0 |
| 20260904213525 | 56 | 315 | 4.0 | 17.0 | 0.01 | 0.22 | 0.20 | 89 | 1004.0 |
| 20260904213031 | 56 | 317 | 6.0 | 17.0 | 0.02 | 0.22 | 0.20 | 89 | 1003.7 |
| 20260904212525 | 56 | 324 | 5.0 | 14.0 | 0.02 | 0.22 | 0.20 | 90 | 1003.9 |
| 20260904212024 | 55 | 315 | 6.0 | 18.0 | 0.02 | 0.22 | 0.20 | 90 | 1003.7 |
| 20260904211523 | 55 | 15 | 8.0 | 14.0 | 0.02 | 0.22 | 0.20 | 90 | 1003.6 |
| 20260904211019 | 55 | 303 | 7.0 | 14.0 | 0.02 | 0.22 | 0.20 | 90 | 1003.7 |
| 20260904210517 | 55 | 342 | 4.0 | 12.0 | 0.03 | 0.22 | 0.20 | 90 | 1003.5 |
| 20260904210017 | 55 | 336 | 5.0 | 14.0 | 0.04 | 0.22 | 0.20 | 90 | 1003.4 |
| 20260904205516 | 55 | 11 | 6.0 | 14.0 | 0.05 | 0.22 | 0.20 | 90 | 1003.5 |